Regional Weather Roundup
Issued by NWS

Home | Current Version | Previous Version | Text Only | Print | Product List | Glossary On
Versions: 1 2 3 4 5 6 7 8 9 10 11 12 13 14 15 16 17 18 19 20 21 22 23 24 25 26 27 28 29 30 31 32 33 34 35 36 37 38 39 40 41 42 43 44 45 46 47 48 49 50
000
ASUS43 KBIS 280510
RWRND

NORTH DAKOTA REGIONAL WEATHER ROUNDUP
NATIONAL WEATHER SERVICE BISMARCK ND
1200 AM CDT TUE JUL 28 2015

NOTE: "FAIR" INDICATES FEW OR NO CLOUDS BELOW 12,000 FEET WITH NO
SIGNIFICANT WEATHER AND/OR OBSTRUCTIONS TO VISIBILITY.


NDZ001>003-009>011-017-280600-
NORTHWEST NORTH DAKOTA

CITY           SKY/WX    TMP DP  RH WIND       PRES   REMARKS
WILLISTON      LGT RAIN  66  63  90 SW23G35   29.64R
MINOT          LGT RAIN  81  59  47 S23G35    29.58F
MINOT AFB      CLOUDY    81  74  77 S17G29    29.56F
$$

NDZ018>021-031>035-040>046-280600-
SOUTHWEST NORTH DAKOTA

CITY           SKY/WX    TMP DP  RH WIND       PRES   REMARKS
BISMARCK       LGT RAIN  72  62  71 S10G20    29.62F
DICKINSON      CLOUDY    63  59  87 W16G24    29.70F
GARRISON         N/A     75  61  61 S16G23    29.63R
HETTINGER ARPT CLOUDY    66  57  72 W10       29.72R
$$

NDZ004>008-012>016-024-026-027-054-280600-
NORTHEAST NORTH DAKOTA

CITY           SKY/WX    TMP DP  RH WIND       PRES   REMARKS
GRAND FORKS    PTCLDY    76  71  85 SE10      29.72F
GRND FRKS AFB  MOCLDY    76  72  86 S10       29.74F
DEVILS LAKE    MOCLDY    77  68  73 SE18      29.68F
$$

NDZ022-023-025-028>030-036>039-047>053-280600-
SOUTHEAST NORTH DAKOTA

CITY           SKY/WX    TMP DP  RH WIND       PRES   REMARKS
FARGO          CLEAR     79  72  79 SE16G24   29.75F
JAMESTOWN      MOCLDY    77  74  90 SE13      29.69F
$$




USA.gov is the U.S. government's official web portal to all federal, state and local government web resources and services.